STARLINK-35055 (65524 NORAD) Tracking and Keplerian Element Data

This shows tracking and keplerian element data for the satellite.

Feedback or suggestion? Click here.




ElementValue
Catalog65524
NameSTARLINK-35055
Epoch Orbit1716
Epoch Day354.156785
Epoch Year2025
RAAN61.402
Inclination97.603
Eccentricity9.71E-05
Argument of Perigee97.2026
Mean Anonmoly262.9311
Mean Motion15.05650492
Decay Rate1.9E-05
L11 65524U 25200E 25354.15678500 .00001900 00000+0 13582-3 0 9993
L22 65524 97.6030 61.4020 0000971 97.2026 262.9311 15.05650492 17161



Live tracking and technical data element details for STARLINK-35055 (NORAD 65524). STARLINK-35055 can be tracked NOW for your location showing map with azimuth and elevation plus other details from your city location.







IsCatalogInMostPopularTable: catalog: 65524, numindb: 9
Update: records affected: 1



GetName: 65524 STARLINK-35055

Hit Count: updated at: Tue, 21 Apr 2026 19:41:57 GMT